Location: La Coruña
(43.3623°N, 8.4115°W)
Time: 19:50:31
(UTC+01:00)

STARLINK-1099 - Pass Details

Date: 26 January 2020
Orbit: 532 x 534 km, 53.0° (Epoch: 18 February)

Event Time Altitude Azimuth Distance (km) Brightness Sun altitude
Rises 20:33:10 0° 306° (NW) 2,665 7.9 -21.1°
Reaches altitude 10° 20:35:33 10° 316° (NW) 1,772 6.7 -21.6°
Enters shadow 20:38:28 30° 359° (N) 962 4.8 -22.1°
